TimeMDT,TemperatureF,Dew PointF,Humidity,Sea Level PressureIn,VisibilityMPH,Wind Direction,Wind SpeedMPH,Gust SpeedMPH,PrecipitationIn,Events,Conditions,WindDirDegrees,DateUTC
12:56 AM,51.1,43.0,74,29.94,10.0,West,4.6,-,N/A,,Clear,260,2013-06-16 06:56:00
1:56 AM,51.1,43.0,74,29.93,10.0,WSW,3.5,-,N/A,,Clear,240,2013-06-16 07:56:00
2:56 AM,53.1,43.0,69,29.93,10.0,SW,3.5,-,N/A,,Clear,220,2013-06-16 08:56:00
3:56 AM,50.0,43.0,77,29.93,10.0,SSW,6.9,-,N/A,,Clear,210,2013-06-16 09:56:00
4:56 AM,48.9,43.0,80,29.93,10.0,SSW,8.1,-,N/A,,Clear,200,2013-06-16 10:56:00
5:56 AM,54.0,45.0,72,29.93,10.0,SW,8.1,-,N/A,,Clear,230,2013-06-16 11:56:00
6:56 AM,61.0,50.0,67,29.93,10.0,West,8.1,-,N/A,,Clear,280,2013-06-16 12:56:00
7:56 AM,63.0,48.0,58,29.96,10.0,WNW,10.4,-,N/A,,Clear,300,2013-06-16 13:56:00
8:56 AM,66.0,48.9,54,29.97,10.0,NW,11.5,-,N/A,,Clear,310,2013-06-16 14:56:00
9:56 AM,68.0,48.9,50,29.97,10.0,West,10.4,-,N/A,,Clear,280,2013-06-16 15:56:00
10:56 AM,71.1,48.0,44,29.96,10.0,WNW,17.3,-,N/A,,Clear,290,2013-06-16 16:56:00
11:56 AM,73.0,48.0,41,29.96,10.0,WNW,20.7,29.9,N/A,,Clear,300,2013-06-16 17:56:00
12:56 PM,73.0,46.9,39,29.96,10.0,West,21.9,32.2,N/A,,Clear,280,2013-06-16 18:56:00
1:56 PM,75.0,48.0,38,29.96,10.0,West,18.4,29.9,N/A,,Partly Cloudy,280,2013-06-16 19:56:00
2:56 PM,75.0,46.9,37,29.96,10.0,West,21.9,32.2,N/A,,Partly Cloudy,280,2013-06-16 20:56:00
3:56 PM,73.9,48.0,40,29.96,10.0,WNW,18.4,26.5,N/A,,Clear,300,2013-06-16 21:56:00
4:56 PM,72.0,48.0,43,29.97,10.0,NW,21.9,28.8,N/A,,Partly Cloudy,320,2013-06-16 22:56:00
5:56 PM,69.1,46.9,45,29.97,10.0,NW,16.1,25.3,N/A,,Clear,310,2013-06-16 23:56:00
6:56 PM,69.1,46.9,45,29.97,10.0,NW,15.0,23.0,N/A,,Clear,310,2013-06-17 00:56:00
7:56 PM,66.0,48.0,52,29.98,10.0,NW,11.5,-,N/A,,Clear,310,2013-06-17 01:56:00
8:56 PM,59.0,48.9,69,30.00,10.0,NW,6.9,-,N/A,,Clear,310,2013-06-17 02:56:00
9:56 PM,55.0,48.0,77,30.03,10.0,WNW,8.1,-,N/A,,Clear,300,2013-06-17 03:56:00
10:56 PM,53.1,46.9,80,30.04,10.0,WNW,6.9,-,N/A,,Clear,300,2013-06-17 04:56:00
11:56 PM,48.9,46.0,90,30.04,10.0,West,5.8,-,N/A,,Clear,270,2013-06-17 05:56:00